This demonstration page uses our WeatherBlox Daily Observations layout. Learn more.

Left ArrowRight Arrow

36.19886, -115.1175

Hourly Observations for March 4, 2017

Temp ( °F °C ) Dew Point ( °F °C ) Humidity (%) Winds ( mph kmh ) Pressure ( in mb ) Visibility ( mi km ) Precip ( " mm )
12:53 am 00:53 Clear 51 10.6 27 -2.8 39 39 N N/A 30.00 1016 10 16 N/A
1:53 am 01:53 Clear 51 10.6 26 -3.3 38 38 N N/A 29.98 1015 10 16 N/A
2:53 am 02:53 Clear 51 10.6 26 -3.3 38 38 N N/A 29.96 1015 10 16 N/A
3:53 am 03:53 Clear 53 11.7 25 -3.9 34 34 SE 6 9 29.95 1014 10 16 N/A
4:53 am 04:53 Clear 51 10.6 28 -2.2 41 41 N N/A 29.96 1015 10 16 N/A
5:53 am 05:53 Clear 52 11.1 27 -2.8 38 38 E 3 6 29.97 1015 10 16 N/A
6:53 am 06:53 Sunny 51 10.6 28 -2.2 41 41 NW 3 6 29.99 1016 10 16 N/A
7:53 am 07:53 Sunny 55 12.8 30 -1.1 38 38 ENE 3 6 30.01 1016 10 16 N/A
8:53 am 08:53 Sunny 59 15 27 -2.8 29 29 ESE 5 7 30.01 1016 10 16 N/A
9:53 am 09:53 Sunny 64 17.8 25 -3.9 23 23 SE 8 13 30.00 1016 10 16 N/A
10:53 am 10:53 Sunny 67 19.4 23 -5 19 19 VRB 5 7 29.97 1015 10 16 N/A
11:53 am 11:53 Sunny 73 22.8 13 -10.6 10 10 SW 14 22 29.94 1014 10 16 N/A
12:05 pm 12:05 Sunny 74 23.3 10 -12.2 8 8 SSW 21 33 29.83 1010 10 16 N/A
12:53 pm 12:53 Sunny 75 23.9 10 -12.2 8 8 SSW 18 30 29.90 1012 10 16 N/A
1:53 pm 13:53 Sunny 75 23.9 2 -16.7 6 6 SW 14 22 29.88 1012 10 16 N/A
2:53 pm 14:53 Sunny 75 23.9 N/A 5 5 SW 17 28 29.86 1011 10 16 N/A
3:53 pm 15:53 Sunny 74 23.3 N/A 5 5 SW 18 30 29.84 1011 10 16 N/A
4:53 pm 16:53 Sunny 71 21.7 4 -15.6 7 7 SW 17 28 29.84 1011 10 16 N/A
5:53 pm 17:53 Clear 67 19.4 28 -2.2 23 23 S 21 33 29.85 1011 10 16 N/A
6:53 pm 18:53 Clear 66 18.9 26 -3.3 22 22 SSW 17 28 29.86 1011 10 16 N/A
7:53 pm 19:53 Clear 65 18.3 23 -5 20 20 SSW 15 24 29.86 1011 10 16 N/A
8:53 pm 20:53 Clear 64 17.8 21 -6.1 19 19 S 14 22 29.87 1012 10 16 N/A
9:53 pm 21:53 Clear 63 17.2 21 -6.1 20 20 S 13 20 29.87 1011 10 16 N/A
10:53 pm 22:53 Clear 63 17.2 20 -6.7 19 19 S 16 26 29.86 1011 10 16 N/A
11:53 pm 23:53 Clear 63 17.2 22 -5.6 21 21 S 12 19 29.85 1011 10 16 N/A

Powered by AerisWeather